BEIDOU 21

Last updated on May 15, 2019, 3:07 a.m. UTC

1 41315U 16006A   19134.24590175  .00000096  00000-0  00000+0 0  9992
2 41315  55.1277 150.1406 0004280 259.9268 102.9114  1.86232092 22347
UTC
Height (km)
Latitude
Longitude
Inclination
Orbital Period
UTC large
Height (km)
Speed (km/s)
/
Latitude / Longitude
Inclination (degrees)
Orbital Period (minutes)
Azimuth
Elevation
Range (km)
Doppler Factor
iOS Compass Heading
iOS Angle

Next 30 passes for location: Hong Kong

Rise time Rise Azimuth (degrees) Set time Set Azimuth (degrees) Duration Max altitude (degrees)

No matching passes for this satellites